{"data":{"norad_id":52763,"intl_designator":"2022-057AH","name":"SHERPA-AC1","alt_names":[],"object_type":"PAYLOAD","status":"ACTIVE","operator":null,"country":"US","launch_date":"2022-05-25","launch_site_code":"AFETR","launch_vehicle":null,"mission":null,"orbit_class":"UNKNOWN","rcs_meters":null,"size_class":null,"mass_kg":null,"dimensions":null,"purposes":[],"wikipedia_slug":null,"has_3d_model":false,"image_url":null,"decayed_at":null,"tle_current":{"epoch":"2026-09-20T09:18:02.931552Z","epoch_age_seconds":141412,"freshness":"FRESH","line1":"1 52763U 22057AH  26263.38753393  .00005539  00000+0  15318-3 0  9991","line2":"2 52763  97.6816  56.7485 0008631 109.7588 250.4588 15.37435038240325","mean_motion":15.37435038,"eccentricity":0.0008631,"inclination_deg":97.6816,"raan_deg":56.7485,"arg_perigee_deg":109.7588,"mean_anomaly_deg":250.4588,"bstar":0.00015318,"rev_number":24032,"period_min":93.662493985648,"perigee_km":447.80075459078,"apogee_km":459.59386697806,"semimajor_km":6831.8343107844,"source":"CELESTRAK","updated_at":"2026-09-21T09:00:08.718866Z"}}}